Location: Harbor Side
(32.6101°N, 117.0814°W)
Time: 07:18:39
(UTC+00:00)

RESURS DK-1 - Pass Details

Date: 21 April 2021
Orbit: 553 x 563 km, 69.9° (Epoch: 13 May)

Event Time Altitude Azimuth Distance (km) Brightness Sun altitude
Rises 12:33:45 0° 347° (NNW) 2,757 6.0 -8.4°
Reaches altitude 10° 12:36:05 10° 355° (N) 1,858 5.2 -8.0°
Maximum altitude 12:39:58 38° 65° (ENE) 869 4.1 -7.2°
Drops below altitude 10° 12:43:50 10° 134° (SE) 1,848 5.4 -6.4°
Sets 12:46:08 0° 142° (SE) 2,740 6.2 -6.0°
